Location: Corocito
(10.1894°N, 67.0986°W)
Time: 09:29:52
(UTC+00:00)

ATLAS 5 CENTAUR R/B - Pass Details

Date: 29 May 2024
Orbit: 419 x 1168 km, 63.3° (Epoch: 16 June)

Event Time Altitude Azimuth Distance (km) Brightness Sun altitude
Rises 23:21:17 0° 320° (NW) 3,545 6.8 -8.8°
Reaches altitude 10° 23:23:51 10° 312° (NW) 2,707 6.2 -9.4°
Maximum altitude 23:29:46 37° 247° (WSW) 1,600 4.1 -10.7°
Drops below altitude 10° 23:36:25 10° 182° (S) 3,040 4.9 -12.2°
Sets 23:39:29 0° 174° (S) 4,030 5.4 -12.8°
